Location: Buchdorf
(48.7842°N, 10.8275°E)
Time: 18:40:41
(UTC+00:00)

ERS-1 Rocket - Pass Details

Date: 09 April 2020
Orbit: 754 x 757 km, 98.5° (Epoch: 01 June)

Event Time Altitude Azimuth Distance (km) Brightness Sun altitude
Exits shadow 20:47:02 68° 168° (SSE) 816 2.8 -24.3°
Maximum altitude 20:47:42 89° 254° (WSW) 763 2.9 -24.4°
Drops below altitude 10° 20:52:46 10° 345° (NNW) 2,292 6.3 -24.9°
Sets 20:55:04 0° 346° (NNW) 3,222 7.3 -25.1°
